Valley City, ND

7:46 AM CST on December 06, 2019 (GMT -0600)
Valley City

Weather History for KBAC - October, 2019

Change the Weather History Date:

Tuesday, October 1, 2019

  Actual Average (WUND) Record (WUND)
Temperature  
Mean Temperature 42 °F -  
Max Temperature 46 °F - - (-1)
Min Temperature 39 °F - - (-1)
Degree Days  
Heating Degree Days 22    
Moisture  
Dew Point 39 °F    
Average Humidity 91    
Maximum Humidity 100    
Minimum Humidity 71    
Precipitation  
Precipitation 0.00 in - - ()
Sea Level Pressure  
Sea Level Pressure 30.15 in    
Wind  
Wind Speed 14 mph (North)    
Max Wind Speed 21 mph    
Max Gust Speed 28 mph    
Visibility 10 miles    
Events      
Averages and records for this station are not official NWS values.
T = Trace of Precipitation, MM = Missing Value Source: NWS Daily Summary

Daily Weather History Graph

Daily Weather History Graph

Search for Another Location

Airport or City:

Astronomy

Oct. 01, 2019 Rise Set
Actual Time 7:30 AM CDT 7:12 PM CDT
Civil Twilight 7:00 AM CDT 7:42 PM CDT
Nautical Twilight 6:24 AM CDT 8:17 PM CDT
Astronomical Twilight 5:49 AM CDT 8:53 PM CDT
Moon 10:59 AM CDT (10/1) 9:13 PM CDT (10/1)
Length of Visible Light 12h 42m
Length of Day
11h 41m
Waxing Crescent, 12% of the Moon is Illuminated
Oct 1
Waxing Crescent
Oct 5
First Quarter
Oct 13
Full
Oct 21
Last Quarter
Oct 27
New

Hourly Weather History & Observations

Time (CDT) Temp. Windchill Dew Point Humidity Pressure Visibility Wind Dir Wind Speed Gust Speed Precip Events Conditions
12:15 AM 42.8 °F 34.0 °F 42.8 °F 100% 30.02 in 10.0 mi NNW 20.7 mph - N/A   Overcast
12:35 AM 42.8 °F 35.4 °F 42.8 °F 100% 30.02 in 10.0 mi NW 15.0 mph - N/A   Overcast
12:55 AM 42.8 °F 34.8 °F 42.8 °F 100% 30.04 in 10.0 mi NW 17.3 mph 27.6 mph N/A   Overcast
1:15 AM 42.8 °F 37.0 °F 42.8 °F 100% 30.05 in 8.0 mi NW 10.4 mph 17.3 mph N/A   Overcast
1:35 AM - - - N/A% 30.05 in 5.0 mi NW 12.7 mph 19.6 mph N/A   Overcast
1:55 AM 41.0 °F 33.5 °F 41.0 °F 100% 30.03 in 10.0 mi NNW 13.8 mph - N/A   Overcast
2:15 AM 41.0 °F 34.7 °F 41.0 °F 100% 30.09 in 10.0 mi NNW 10.4 mph 16.1 mph N/A   Overcast
2:35 AM 41.0 °F 34.7 °F 41.0 °F 100% 30.10 in 10.0 mi NNW 10.4 mph - N/A   Overcast
2:55 AM 41.0 °F 33.5 °F 41.0 °F 100% 30.08 in 10.0 mi NNW 13.8 mph - N/A   Overcast
3:15 AM 41.0 °F 34.7 °F 41.0 °F 100% 30.11 in 10.0 mi NW 10.4 mph - N/A   Overcast
3:35 AM 41.0 °F 33.5 °F 41.0 °F 100% 30.11 in 10.0 mi NNW 13.8 mph - N/A   Overcast
3:55 AM 41.0 °F 33.1 °F 41.0 °F 100% 30.10 in 10.0 mi NW 15.0 mph - N/A   Overcast
4:15 AM 41.0 °F 33.1 °F 41.0 °F 100% 30.10 in 10.0 mi NNW 15.0 mph - N/A   Overcast
4:35 AM 41.0 °F 35.2 °F 41.0 °F 100% 30.10 in 10.0 mi NW 9.2 mph 18.4 mph N/A   Overcast
4:55 AM 41.0 °F 33.9 °F 41.0 °F 100% 30.12 in 10.0 mi NW 12.7 mph - N/A   Overcast
5:15 AM 41.0 °F 34.3 °F 41.0 °F 100% 30.12 in 10.0 mi NNW 11.5 mph - N/A   Overcast
5:35 AM 41.0 °F 35.2 °F 41.0 °F 100% 30.12 in 10.0 mi NW 9.2 mph - N/A   Overcast
5:55 AM 41.0 °F 34.7 °F 41.0 °F 100% 30.13 in 10.0 mi NW 10.4 mph - N/A   Overcast
6:15 AM 39.2 °F 32.5 °F 39.2 °F 100% 30.12 in 10.0 mi NNW 10.4 mph - N/A   Overcast
6:35 AM 39.2 °F 31.2 °F 39.2 °F 100% 30.11 in 10.0 mi NNW 13.8 mph - N/A   Overcast
6:55 AM 39.2 °F 32.0 °F 39.2 °F 100% 30.12 in 10.0 mi North 11.5 mph - N/A   Overcast
7:15 AM 39.2 °F 32.0 °F 39.2 °F 100% 30.15 in 10.0 mi North 11.5 mph - N/A   Overcast
7:35 AM 39.2 °F 32.0 °F 39.2 °F 100% 30.14 in 10.0 mi North 11.5 mph - N/A   Overcast
7:55 AM 39.2 °F 31.6 °F 39.2 °F 100% 30.16 in 10.0 mi NNW 12.7 mph - N/A   Overcast
8:15 AM 39.2 °F 31.6 °F 39.2 °F 100% 30.18 in 10.0 mi NNW 12.7 mph - N/A   Overcast
8:35 AM 39.2 °F 32.5 °F 39.2 °F 100% 30.16 in 10.0 mi North 10.4 mph - N/A   Overcast
8:55 AM 39.2 °F 33.0 °F 39.2 °F 100% 30.18 in 10.0 mi North 9.2 mph - N/A   Overcast
9:15 AM 39.2 °F 31.6 °F 39.2 °F 100% 30.17 in 10.0 mi North 12.7 mph - N/A   Overcast
9:35 AM 39.2 °F 32.5 °F 39.2 °F 100% 30.16 in 10.0 mi North 10.4 mph - N/A   Overcast
9:55 AM 39.2 °F 31.2 °F 39.2 °F 100% 30.16 in 10.0 mi NNW 13.8 mph - N/A   Overcast
10:15 AM 41.0 °F 33.9 °F 39.2 °F 93% 30.17 in 10.0 mi NNW 12.7 mph - N/A   Overcast
10:35 AM 41.0 °F 33.1 °F 39.2 °F 93% 30.18 in 10.0 mi NNW 15.0 mph - N/A   Overcast
11:15 AM 42.8 °F 35.8 °F 39.2 °F 87% 30.17 in 10.0 mi North 13.8 mph - N/A   Overcast
11:35 AM 42.8 °F 35.8 °F 39.2 °F 87% 30.17 in 10.0 mi North 13.8 mph - N/A   Overcast
11:55 AM 42.8 °F 36.2 °F 39.2 °F 87% 30.17 in 10.0 mi North 12.7 mph - N/A   Overcast
12:15 PM 42.8 °F 35.8 °F 39.2 °F 87% 30.18 in 10.0 mi North 13.8 mph - N/A   Overcast
1:15 PM 44.6 °F 38.4 °F 37.4 °F 76% 30.18 in 10.0 mi North 12.7 mph - N/A   Overcast
1:35 PM 46.4 °F 40.7 °F 37.4 °F 71% 30.17 in 10.0 mi North 12.7 mph 19.6 mph N/A   Overcast
1:55 PM 46.4 °F 41.1 °F 39.2 °F 76% 30.17 in 10.0 mi North 11.5 mph - N/A   Overcast
2:15 PM 46.4 °F 40.4 °F 39.2 °F 76% 30.17 in 10.0 mi North 13.8 mph - N/A   Overcast
2:35 PM 46.4 °F 40.7 °F 39.2 °F 76% 30.16 in 10.0 mi North 12.7 mph - N/A   Overcast
2:55 PM 46.4 °F 40.1 °F 39.2 °F 76% 30.16 in 10.0 mi North 15.0 mph - N/A   Overcast
3:15 PM 46.4 °F 39.2 °F 39.2 °F 76% 30.15 in 10.0 mi NNE 18.4 mph - N/A   Overcast
3:35 PM 46.4 °F 40.1 °F 39.2 °F 76% 30.16 in 10.0 mi NNE 15.0 mph - N/A   Overcast
3:55 PM 46.4 °F 39.8 °F 37.4 °F 71% 30.15 in 10.0 mi NNE 16.1 mph - N/A   Overcast
4:15 PM 46.4 °F 40.4 °F 37.4 °F 71% 30.15 in 10.0 mi NE 13.8 mph 20.7 mph N/A   Overcast
4:35 PM 46.4 °F 40.7 °F 37.4 °F 71% 30.17 in 10.0 mi NE 12.7 mph 19.6 mph N/A   Overcast
4:55 PM 44.6 °F 38.8 °F 37.4 °F 76% 30.17 in 10.0 mi NNE 11.5 mph 18.4 mph N/A   Overcast
5:35 PM 44.6 °F 38.4 °F 37.4 °F 76% 30.18 in 10.0 mi NE 12.7 mph - N/A   Overcast
5:55 PM 44.6 °F 38.8 °F 37.4 °F 76% 30.19 in 10.0 mi NNE 11.5 mph - N/A   Overcast
6:15 PM 42.8 °F 36.6 °F 37.4 °F 81% 30.18 in 10.0 mi NNE 11.5 mph - N/A   Overcast
6:35 PM 42.8 °F 36.6 °F 37.4 °F 81% 30.18 in 10.0 mi NNE 11.5 mph - N/A   Overcast
6:55 PM 42.8 °F 37.0 °F 37.4 °F 81% 30.19 in 10.0 mi NNE 10.4 mph - N/A   Overcast
7:15 PM 42.8 °F 37.0 °F 37.4 °F 81% 30.19 in 10.0 mi NE 10.4 mph 17.3 mph N/A   Overcast
7:35 PM 41.0 °F 34.7 °F 37.4 °F 87% 30.20 in 10.0 mi NNE 10.4 mph - N/A   Overcast
7:55 PM 41.0 °F 34.7 °F 37.4 °F 87% 30.20 in 10.0 mi NNE 10.4 mph - N/A   Overcast
8:35 PM 41.0 °F 35.8 °F 39.2 °F 93% 30.21 in 10.0 mi NNE 8.1 mph - N/A   Overcast
8:55 PM 41.0 °F 33.9 °F 39.2 °F 93% 30.21 in 10.0 mi NNE 12.7 mph - N/A   Overcast
9:15 PM 41.0 °F 33.5 °F 39.2 °F 93% 30.21 in 10.0 mi North 13.8 mph - N/A   Overcast
9:35 PM 41.0 °F 33.9 °F 37.4 °F 87% 30.21 in 10.0 mi North 12.7 mph 18.4 mph N/A   Overcast
9:55 PM 41.0 °F 33.9 °F 39.2 °F 93% 30.20 in 10.0 mi NNE 12.7 mph - N/A   Overcast
10:15 PM 41.0 °F 33.5 °F 39.2 °F 93% 30.21 in 10.0 mi North 13.8 mph 21.9 mph N/A   Overcast
10:35 PM 41.0 °F 33.5 °F 39.2 °F 93% 30.21 in 10.0 mi NNE 13.8 mph - N/A   Overcast
10:55 PM 41.0 °F 33.9 °F 39.2 °F 93% 30.21 in 10.0 mi NNE 12.7 mph - N/A   Overcast
11:15 PM 41.0 °F 32.8 °F 39.2 °F 93% 30.22 in 10.0 mi NNE 16.1 mph - N/A   Overcast
11:35 PM 41.0 °F 34.3 °F 39.2 °F 93% 30.22 in 10.0 mi NNE 11.5 mph 20.7 mph N/A   Overcast
11:55 PM 39.2 °F 30.2 °F 39.2 °F 100% 30.21 in 10.0 mi NNE 17.3 mph - N/A   Overcast